Florence, CO

9:23 PM MST on February 07, 2016 (GMT -0700)
Canon City Fremont County

Weather History for K1V6 - December, 2014

Change the Weather History Date:

Thursday, December 25, 2014

  Actual Average (KPUB) Record (KPUB)
Temperature  
Mean Temperature 36 °F 29 °F  
Max Temperature 42 °F 46 °F 72 °F (1971)
Min Temperature 30 °F 13 °F -10 °F (1983)
Degree Days  
Heating Degree Days 29 36  
Month to date heating degree days 872  
Since 1 July heating degree days 2153  
Cooling Degree Days 0 0  
Month to date cooling degree days 0  
Year to date cooling degree days 897  
Moisture  
Dew Point 18 °F    
Average Humidity 51    
Maximum Humidity 81    
Minimum Humidity 29    
Precipitation  
Precipitation 0.00 in 0.01 in 0.42 in (1894)
Month to date precipitation 0.32  
Year to date precipitation 12.51  
Snow  
Snow 0.00 in 0.20 in 5.10 in (1987)
Month to date snowfall 4.5  
Since 1 July snowfall 10.5  
Snow Depth -    
Sea Level Pressure  
Sea Level Pressure 29.57 in    
Wind  
Wind Speed 14 mph (WSW)    
Max Wind Speed 20 mph    
Max Gust Speed 24 mph    
Visibility 10 miles    
Events      
T = Trace of Precipitation, MM = Missing Value Source: NWS Daily Summary

Daily Weather History Graph

Daily Weather History Graph

Search for Another Location

Airport or City:

Trip Planner

Search our weather history database for the weather conditions in past years. The results will help you decide how hot, cold, wet, or windy it might be!

Date:

Astronomy

Dec. 25, 2014 Rise Set
Actual Time 7:15 AM MST 4:45 PM MST
Civil Twilight 6:46 AM MST 5:15 PM MST
Nautical Twilight 6:12 AM MST 5:48 PM MST
Astronomical Twilight 5:40 AM MST 6:20 PM MST
Moon 9:53 AM MST (12/25) 9:18 PM MST (12/25)
Length of Visible Light 10h 29m
Length of Day
9h 29m
Waxing Crescent, 18% of the Moon is Illuminated
Dec 25
Waxing Crescent
Dec 28
First Quarter
Jan 4
Full
Jan 13
Last Quarter
Jan 20
New

Hourly Weather History & Observations

Time (MST) Temp. Windchill Dew Point Humidity Pressure Visibility Wind Dir Wind Speed Gust Speed Precip Events Conditions
12:15 AM 39.2 °F 30.8 °F 14.0 °F 36% 29.52 in 10.0 mi West 15.0 mph - N/A   Clear
12:35 AM 37.4 °F 29.3 °F 14.0 °F 38% 29.51 in 10.0 mi West 12.7 mph - N/A   Clear
12:55 AM 37.4 °F 29.3 °F 14.0 °F 38% 29.50 in 10.0 mi West 12.7 mph - N/A   Clear
1:15 AM 37.4 °F 28.9 °F 14.0 °F 38% 29.51 in 10.0 mi West 13.8 mph - N/A   Clear
1:35 AM 39.2 °F 29.8 °F 14.0 °F 36% 29.50 in 10.0 mi West 18.4 mph - N/A   Clear
1:55 AM 42.8 °F 34.8 °F 12.2 °F 29% 29.50 in 10.0 mi West 17.3 mph - N/A   Clear
2:15 AM 39.2 °F 29.8 °F 14.0 °F 36% 29.50 in 10.0 mi WNW 18.4 mph - N/A   Clear
2:35 AM 41.0 °F 31.9 °F 14.0 °F 33% 29.51 in 10.0 mi WNW 19.6 mph 24.2 mph N/A   Clear
2:55 AM 41.0 °F 33.5 °F 14.0 °F 33% 29.51 in 10.0 mi West 13.8 mph - N/A   Clear
3:15 AM 41.0 °F 32.8 °F 14.0 °F 33% 29.50 in 10.0 mi West 16.1 mph 21.9 mph N/A   Clear
3:35 AM 39.2 °F 30.5 °F 14.0 °F 36% 29.49 in 10.0 mi West 16.1 mph - N/A   Clear
3:55 AM 37.4 °F 30.3 °F 14.0 °F 38% 29.48 in 10.0 mi West 10.4 mph - N/A   Clear
4:15 AM 37.4 °F 28.9 °F 14.0 °F 38% 29.47 in 10.0 mi WNW 13.8 mph - N/A   Clear
4:35 AM 39.2 °F 30.8 °F 14.0 °F 36% 29.47 in 10.0 mi WNW 15.0 mph - N/A   Clear
4:55 AM 39.2 °F 31.6 °F 14.0 °F 36% 29.47 in 10.0 mi WNW 12.7 mph - N/A   Clear
5:15 AM 39.2 °F 31.2 °F 14.0 °F 36% 29.47 in 10.0 mi NW 13.8 mph - N/A   Clear
5:35 AM 41.0 °F 33.1 °F 14.0 °F 33% 29.47 in 10.0 mi NW 15.0 mph - N/A   Clear
5:55 AM 41.0 °F 33.1 °F 14.0 °F 33% 29.48 in 10.0 mi WNW 15.0 mph - N/A   Clear
6:15 AM 37.4 °F 30.3 °F 14.0 °F 38% 29.47 in 10.0 mi WNW 10.4 mph - N/A   Clear
6:25 AM 37.4 °F 30.3 °F 14.0 °F 38% 29.47 in 10.0 mi WNW 10.4 mph - N/A   Clear
4:55 PM 42.8 °F 38.6 °F 12.2 °F 29% 29.52 in 10.0 mi West 6.9 mph - N/A   Clear
5:15 PM 41.0 °F 35.8 °F 12.2 °F 31% 29.53 in 10.0 mi NW 8.1 mph - N/A   Clear
5:35 PM 39.2 °F 33.0 °F 12.2 °F 33% 29.54 in 10.0 mi NW 9.2 mph - N/A   Clear
5:55 PM 37.4 °F 31.4 °F 12.2 °F 36% 29.56 in 10.0 mi WNW 8.1 mph - N/A   Clear
6:15 PM 33.8 °F 26.4 °F 10.4 °F 38% 29.58 in 10.0 mi East 9.2 mph - N/A   Clear
6:35 PM 35.6 °F 29.2 °F 23.0 °F 60% 29.59 in 10.0 mi ESE 8.1 mph - N/A   Clear
6:55 PM 33.8 °F 26.4 °F 23.0 °F 65% 29.60 in 10.0 mi SE 9.2 mph - N/A   Clear
7:15 PM 33.8 °F 23.5 °F 26.6 °F 75% 29.63 in 10.0 mi SSE 16.1 mph - N/A   Clear
7:35 PM 33.8 °F 23.5 °F 26.6 °F 75% 29.64 in 10.0 mi SE 16.1 mph - N/A   Mostly Cloudy
7:55 PM 33.8 °F 24.8 °F 28.4 °F 81% 29.66 in 10.0 mi SSE 12.7 mph - N/A   Overcast
8:15 PM 33.8 °F 25.3 °F 28.4 °F 81% 29.67 in 10.0 mi SE 11.5 mph 16.1 mph N/A   Overcast
8:35 PM 33.8 °F 27.0 °F 28.4 °F 81% 29.67 in 10.0 mi SE 8.1 mph - N/A   Overcast
8:55 PM 33.8 °F 25.8 °F 28.4 °F 81% 29.68 in 10.0 mi SSE 10.4 mph - N/A   Overcast
9:15 PM 33.8 °F 25.3 °F 28.4 °F 81% 29.68 in 10.0 mi SSE 11.5 mph - N/A   Overcast
9:35 PM 33.8 °F 24.3 °F 28.4 °F 81% 29.69 in 10.0 mi SSE 13.8 mph - N/A   Overcast
9:55 PM 33.8 °F 24.3 °F 23.0 °F 65% 29.70 in 10.0 mi SE 13.8 mph 21.9 mph N/A   Overcast
10:15 PM 32.0 °F 21.6 °F 21.2 °F 64% 29.71 in 10.0 mi SSE 15.0 mph - N/A   Overcast
10:35 PM 32.0 °F 21.2 °F 23.0 °F 69% 29.72 in 10.0 mi SSE 16.1 mph 20.7 mph N/A   Overcast
10:50 PM 30.2 °F 20.2 °F 23.0 °F 75% 29.72 in 10.0 mi SSE 12.7 mph - N/A   Overcast
11:10 PM 30.2 °F 20.8 °F 23.0 °F 75% 29.73 in 10.0 mi South 11.5 mph 16.1 mph N/A   Overcast
11:30 PM 30.2 °F 24.3 °F 21.2 °F 69% 29.74 in 10.0 mi SSE 5.8 mph 17.3 mph N/A   Overcast
11:50 PM 30.2 °F 19.8 °F 21.2 °F 69% 29.74 in 10.0 mi SSE 13.8 mph 17.3 mph N/A   Overcast